Location: Newark
(45.5000°N, 11.4167°E)
Time: 04:03:09
(UTC+00:00)

Vanguard 3 - Pass Details

Date: 29 August 2019
Orbit: 508 x 3263 km, 33.4° (Epoch: 21 September)

Event Time Altitude Azimuth Distance (km) Brightness Sun altitude
Rises 14:22:19 0° 237° (WSW) 6,260 12.7 36.1°
Reaches altitude 10° 14:27:34 10° 230° (SW) 4,793 12.4 35.3°
Maximum altitude 14:37:58 33° 174° (S) 2,367 10.0 33.6°
Drops below altitude 10° 14:44:26 10° 113° (ESE) 2,938 9.7 32.6°
Sets 14:46:51 0° 103° (ESE) 3,609 10.1 32.2°
